Flag for Congo Weather past 2 weeks in Pointe-Noire, Congo

Now
82 °F

Scattered clouds.


Feels Like: 89 °F
Forecast: 81 / 87 °F
Wind: 3 mph from South

Location: Pointe Airport-Noire

Current Time: Jan 25, 2015 at 6:09:42 PM

Latest Report: Jan 25, 2015 at 5:00 PM


Visibility: N/A

Pressure: 29.74 "Hg

Humidity: 79%

Dew point: 75 °F

Location of Pointe-NoireLocation

Historic Weather in Pointe-Noire — Graph

°F

Pointe-Noire temperature yesterday

Maximum temperature yesterday: 86 °F (at 1:00 PM)
Minimum temperature yesterday: 75 °F (at 2:00 AM)
Average temperature yesterday: 81 °F

Past Weeks' High & Low Weather Summary

 TemperatureHumidityPressure
High88 °F (Jan 11, 3:00 PM)100% (Jan 13, 12:00 AM)29.95 "Hg (Jan 13, 12:00 AM)
Low75 °F (Jan 13, 12:00 AM)62% (Jan 12, 3:00 PM)29.74 "Hg (Jan 25, 4:00 PM)
Average82 °F82%29.86 "Hg
* Reported Jan 10 5:00 PM — Jan 25 5:00 PM, Pointe-Noire, Weather by CustomWeather, © 2014

Note: Actual official high and low records may vary slightly from our data, if they occured in-between our weather recording intervals... More about our weather records

Advertising

Pointe-Noire weather history for previous 24 hours

 ConditionsComfort  
Time TempWeatherWind HumidityBarometerVisibility
5:00 PM
Jan 25
82 °FScattered clouds.3 mph79%29.74 "HgN/A
4:00 PM84 °FPartly sunny.6 mph74%29.74 "HgN/A
3:00 PM82 °FThunderstorms. Broken clouds.3 mph79%29.77 "HgN/A
2:00 PM82 °FThunderstorms. Broken clouds.3 mph84%29.77 "Hg4 mi
1:00 PM82 °FThunderstorms. Broken clouds.2 mph84%29.80 "Hg4 mi
12:00 PM86 °FBroken clouds.5 mph70%29.83 "HgN/A
11:00 AM86 °FBroken clouds.7 mph75%29.86 "HgN/A
10:00 AM84 °FBroken clouds.6 mph79%29.86 "HgN/A
9:00 AM81 °FBroken clouds.5 mph89%29.86 "Hg5 mi
8:00 AM81 °FScattered clouds.2 mph89%29.83 "Hg4 mi
7:00 AM79 °FScattered clouds.2 mph94%29.83 "Hg4 mi
6:00 AM79 °FPassing clouds.2 mph94%29.80 "Hg4 mi
5:00 AM79 °FPassing clouds.No wind94%29.80 "Hg5 mi
4:00 AM81 °FPartly cloudy.No wind89%29.83 "Hg5 mi
3:00 AM81 °FLight rain. Partly cloudy.2 mph89%29.80 "Hg5 mi
2:00 AM81 °FPassing clouds.2 mph89%29.80 "Hg5 mi
1:00 AM81 °FPassing clouds.3 mph89%29.83 "Hg5 mi
12:00 AM81 °FPassing clouds.3 mph84%29.83 "Hg5 mi
11:00 PM
Jan 24
81 °FPassing clouds.3 mph84%29.83 "Hg5 mi
10:00 PM82 °FPassing clouds.3 mph79%29.83 "Hg5 mi
9:00 PM82 °FPassing clouds.3 mph79%29.80 "Hg5 mi
8:00 PM82 °FPassing clouds.7 mph79%29.77 "Hg5 mi
7:00 PM82 °FPassing clouds.7 mph79%29.77 "HgN/A
6:00 PM84 °FScattered clouds.8 mph79%29.77 "HgN/A
Weather by CustomWeather, © 2014

See weather overviewHow to use our weather pages